Location: Myrnam
(53.6612°N, 111.2289°W)
Time: 04:01:12
(UTC+00:00)

RS-15 - Visible Passes

Search period start: 07 December 2023 00:00
Search period end: 17 December 2023 00:00
Orbit: 1891 x 2154 km, 64.8° (Epoch: 06 December)

Date Brightness Start Highest point End Pass type
(mag) Time Alt. Az. Time Alt. Az. Time Alt. Az.
07 Dec 9.3 01:04:15 10° ESE 01:08:07 15° ESE 01:08:07 15° ESE visible
07 Dec 8.5 03:08:06 10° S 03:15:57 42° SSE 03:15:57 42° SSE visible
07 Dec 9.3 05:19:48 10° WSW 05:45:32 - NE 05:23:48 25° WSW visible
07 Dec 9.3 07:53:20 25° ENE 07:53:20 25° ENE 07:57:22 10° ENE visible
07 Dec 8.2 10:01:07 61° NNE 10:01:14 61° NNE 10:12:15 10° ESE visible
07 Dec 7.9 12:08:55 38° NW 12:14:03 67° WSW 12:24:52 10° SSE visible
07 Dec 8.9 14:16:43 10° NW 14:24:03 21° W 14:31:24 10° SW visible
08 Dec 9.4 00:33:28 10° E 00:34:20 10° E 00:34:20 10° E visible
08 Dec 8.4 02:32:52 10° S 02:42:10 42° SE 02:42:10 42° SE visible
08 Dec 8.8 04:43:29 10° SW 04:50:00 39° SW 04:50:00 39° SW visible
08 Dec 9.7 07:19:06 16° ENE 07:19:06 16° ENE 07:20:54 10° ENE visible
08 Dec 8.5 09:26:54 51° NE 09:26:54 51° NE 09:35:46 10° E visible
08 Dec 7.8 11:34:42 53° NW 11:38:07 79° SW 11:49:05 10° SSE visible
08 Dec 8.7 13:42:31 17° WNW 13:48:41 28° WSW 13:57:14 10° SSW visible
09 Dec 8.5 01:57:56 10° SSE 02:08:19 35° ESE 02:08:20 35° ESE visible
09 Dec 8.3 04:07:21 10° SW 04:16:10 56° SW 04:16:10 56° SW visible
09 Dec 9.7 06:21:36 10° W 06:44:57 - ENE 06:24:00 18° W visible
09 Dec 8.9 08:52:46 37° ENE 08:52:46 37° ENE 08:59:12 10° E visible
09 Dec 7.8 11:00:34 73° NW 11:02:05 89° NE 11:13:09 10° SE visible
09 Dec 8.4 13:08:23 25° WNW 13:13:12 35° WSW 13:22:37 10° SSW visible
10 Dec 8.7 01:23:21 10° SSE 01:32:48 28° ESE 01:34:26 27° E visible
10 Dec 8.0 03:31:23 10° SSW 03:42:16 72° S 03:42:16 72° S visible
10 Dec 9.2 05:44:57 10° WSW 06:10:52 - ENE 05:50:05 29° W visible
10 Dec 9.3 08:18:42 25° ENE 08:18:42 25° ENE 08:22:38 10° E visible
10 Dec 7.9 10:26:31 77° ENE 10:26:31 77° ENE 10:37:02 10° SE visible
10 Dec 8.2 12:34:20 36° WNW 12:37:36 44° WSW 12:47:38 10° S visible
11 Dec 8.9 00:49:15 10° SE 00:57:23 22° E 01:00:28 19° ENE visible
11 Dec 7.9 02:55:37 10° SSW 03:07:34 66° ESE 03:08:17 65° ESE visible
11 Dec 8.7 05:08:24 10° WSW 05:16:07 44° W 05:16:07 44° W visible
11 Dec 9.7 07:23:45 10° WNW 07:44:42 15° ENE 07:46:03 10° ENE visible
11 Dec 8.3 09:52:31 54° E 09:52:31 54° E 10:00:46 10° ESE visible
11 Dec 7.9 12:00:21 51° W 12:01:54 54° WSW 12:12:22 10° S visible
11 Dec 9.1 14:08:10 13° WNW 14:11:16 15° W 14:16:26 10° WSW visible
12 Dec 9.2 00:15:52 10° SE 00:22:06 16° E 00:26:26 13° ENE visible
12 Dec 8.1 02:20:06 10° S 02:31:43 55° ESE 02:34:14 48° E visible
12 Dec 8.3 04:31:56 10° WSW 04:42:03 62° W 04:42:03 62° W visible
12 Dec 9.6 06:47:07 10° WNW 07:10:46 - ENE 06:49:52 19° WNW visible
12 Dec 8.9 09:18:36 36° E 09:18:36 36° E 09:24:22 10° ESE visible
12 Dec 7.8 11:26:25 65° SW 11:26:25 65° SW 11:36:51 10° SSE visible
12 Dec 8.8 13:34:15 19° W 13:36:02 20° W 13:43:09 10° SW visible
12 Dec 9.4 23:44:15 10° E 23:46:57 11° E 23:49:37 10° ENE visible
13 Dec 8.3 01:44:49 10° S 01:55:59 45° ESE 02:00:06 35° ENE visible
13 Dec 8.0 03:55:37 10° SW 04:07:48 80° NW 04:07:55 79° NW visible
13 Dec 9.2 06:10:27 10° W 06:15:43 29° WNW 06:15:43 29° WNW visible
13 Dec 9.4 08:44:44 22° E 08:44:44 22° E 08:47:54 10° E visible
13 Dec 8.0 10:52:34 61° SSE 10:52:34 61° SSE 11:01:08 10° SSE visible
13 Dec 8.6 13:00:24 26° W 13:00:40 27° WSW 13:09:04 10° SSW visible
14 Dec 8.5 01:09:51 10° SSE 01:20:21 36° ESE 01:25:54 25° ENE visible
14 Dec 7.9 03:19:26 10° SW 03:31:39 90° NW 03:33:41 68° NE visible
14 Dec 8.8 05:33:46 10° W 05:41:29 40° WNW 05:41:29 40° WNW visible
14 Dec 9.8 07:49:00 10° WNW 08:10:55 11° E 08:11:21 10° E visible
14 Dec 8.5 10:18:44 44° SE 10:18:44 44° SE 10:25:13 10° SE visible
14 Dec 8.5 12:26:35 33° WSW 12:26:35 33° WSW 12:34:30 10° SSW visible
15 Dec 8.8 00:35:12 10° SSE 00:44:48 29° ESE 00:51:37 17° ENE visible
15 Dec 7.9 02:43:26 10° SSW 02:55:35 79° SE 02:59:24 51° NE visible
15 Dec 8.5 04:57:08 10° W 05:07:11 53° NW 05:07:11 53° NW visible
15 Dec 9.7 07:12:30 10° WNW 07:37:07 - E 07:14:58 18° WNW visible
15 Dec 9.1 09:44:57 28° SE 09:44:57 28° SE 09:49:07 10° SE visible
15 Dec 8.5 11:52:48 36° SW 11:52:48 36° SW 11:59:34 10° S visible
16 Dec 9.0 00:01:02 10° SE 00:09:23 22° E 00:17:15 11° NE visible
16 Dec 8.0 02:07:40 10° SSW 02:19:38 67° ESE 02:25:02 38° NE visible
16 Dec 8.2 04:20:34 10° WSW 04:32:32 62° NNW 04:32:49 62° NNW visible
16 Dec 9.3 06:35:56 10° WNW 06:40:36 26° WNW 06:40:36 26° WNW visible
16 Dec 9.6 09:11:11 16° ESE 09:11:11 16° ESE 09:12:52 10° ESE visible
16 Dec 8.7 11:19:01 32° S 11:19:01 32° S 11:24:20 10° S visible
16 Dec 9.3 13:26:51 12° WSW 13:26:51 12° WSW 13:27:58 10° WSW visible
